Regional Weather Roundup
Issued by NWS Sterling, VA

Home | Current Version | Previous Version | Text Only | Print | Product List | Glossary On
Versions: 1 2 3 4 5 6 7 8 9 10 11 12 13 14 15 16 17 18 19 20 21 22 23 24 25 26 27 28 29 30 31 32 33 34 35 36 37 38 39 40 41 42 43 44 45 46 47 48 49 50
000
ASUS41 KLWX 120010
RWRLWX

REGIONAL WEATHER ROUNDUP
NATIONAL WEATHER SERVICE BALTIMORE MD/WASHINGTON DC
700 PM EST THU FEB 11 2016

Note: "FAIR" indicates few or no clouds below 12,000 feet
with no significant weather and/or obstructions to visibility.
 TC=TEMPERATURE CELSIUS

 * =Non NWS site. Station does not report precipitation (e.g. rain,
    snow, etc.), thunder, or fog.

DCZ001-MDZ009-015-VAZ040>042-051-053>054-120100-
WASHINGTON METRO

CITY           SKY/WX    TMP DP  RH WIND       PRES   REMARKS
WASHINGTON NAT FAIR      25   0  33 NW16G24   30.27R WCI  12
DULLES         FAIR      22   0  38 NW16      30.26R WCI   8
ANDREWS AFB    CLEAR     24   0  35 NW17G29   30.23R WCI  10
FT BELVOIR     FAIR      24   0  34 NW15G22   30.26R WCI  12
QUANTICO       FAIR      27   0  31 N8G22     30.29R WCI  19
COLLEGE PARK*  FAIR      27   0  31 W6G21     30.26R
LEESBURG*      FAIR      23   9  54 NW15      30.26R WCI  10
MANASSAS*      CLEAR     23   3  42 N10       30.27R WCI  12
GAITHERSBURG*  CLEAR     19   0  42 NW12G18   30.27R WCI   7

$$

MDZ006>007-011-014-120100-
BALTIMORE METRO

CITY           SKY/WX    TMP DP  RH WIND       PRES   REMARKS
BWI AIRPORT    PTCLDY    22   0  38 W15G28    30.23R WCI   9
MD SCIENCE CTR   N/A     24  -1  33 MISG      30.29R
MARTIN STATE   CLEAR     25   3  39 W16       30.25R WCI  12
ANNAPOLIS      CLEAR     25   4  40 W9        30.25R WCI  15
FORT MEADE*    CLEAR     23   3  42 NW13G18   30.27R WCI  11

$$

MDZ012-015-019>023-120100-
MARYLAND EASTERN SHORE

CITY           SKY/WX    TMP DP  RH WIND       PRES   REMARKS
OCEAN CITY     CLEAR     25   3  38 NW10      30.22R WCI  15
SALISBURY      CLEAR     25   3  38 NW13      30.22R WCI  14
BAY BRIDGE AP*   N/A     27   1  33 NW16G23   30.25R WCI  14
CAMBRIDGE*     CLEAR     27   3  36 W16G23    30.24R WCI  14
EASTON*        CLEAR     25   5  42 NW10      30.27R WCI  15

$$

MDZ017>025-120100-
SOUTHERN MARYLAND

CITY           SKY/WX    TMP DP  RH WIND       PRES   REMARKS
PATUXENT RIVER PTCLDY    27   2  34 NW17      30.24R WCI  14
ST INIGOES     CLEAR     28   2  32 NW9       30.23R WCI  19
LEONARDTOWN*   CLEAR     27   1  33 NW7       30.25R

$$

MDZ003>005-120100-
NORTH CENTRAL MARYLAND

CITY           SKY/WX    TMP DP  RH WIND       PRES   REMARKS
FREDERICK*     MOCLDY    21   7  53 W20G26    30.28R WCI   6
HAGERSTOWN APT CLEAR     19   1  45 W18G26    30.21R WCI   4
WESTMINSTER*   PTCLDY    18   7  62 W14       30.18R WCI   4

$$

MDZ501>502-120100-
WESTERN MARYLAND

CITY           SKY/WX    TMP DP  RH WIND       PRES   REMARKS
OAKLAND*       MOCLDY     7   1  78 W7        30.06R
CUMBERLAND*    MOCLDY    21   3  45 SW8       30.29R WCI  12

$$

VAZ025>031-120100-
SHENANDOAH VALLEY

CITY           SKY/WX    TMP DP  RH WIND       PRES   REMARKS
WINCHESTER*    FAIR      21   3  45 NW7       30.23R
FRONT ROYAL*   FAIR      21   1  42 W3        30.23R
LURAY*         FAIR      21   0  39 NW12G17   30.24R WCI   9
NEW MARKET*    FAIR      20  -1  40 W7        30.23R
STAUNTON*      FAIR      25   2  37 NW9       30.23R WCI  15
WAYNESBORO*    FAIR      20  -2  37 NW7       30.19R

$$

WVZ021-048>050-054>055-120100-
EASTERN WEST VIRGINIA PANHANDLE

CITY           SKY/WX    TMP DP  RH WIND       PRES   REMARKS
MARTINSBURG    CLOUDY    20   0  41 W10       30.25R WCI   9
PETERSBURG*    MOCLDY    19   2  47 CALM      30.26R

$$

VAZ036>039-050-120100-
CENTRAL FOOTHILLS

CITY           SKY/WX    TMP DP  RH WIND       PRES   REMARKS
CHARLOTTESVILL FAIR      25  -1  32 NW5       30.23R
CULPEPER*      FAIR      23   0  36 N5        30.27R
ORANGE*        FAIR      27   1  33 NW8       30.26R WCI  18
GORDONSVILLE*  FAIR      26   0  33 NW5       30.23R
WARRENTON*     FAIR      24   6  48 NW8       30.25R WCI  14

$$

VAZ055>057-120100-
NORTH AND CENTRAL PIEDMONT

CITY           SKY/WX    TMP DP  RH WIND       PRES   REMARKS
FREDERICKSBRG* FAIR      27   2  35 NW8       30.26R WCI  18
STAFFORD*      FAIR      24  -1  34 NW12      30.30R WCI  13

$$

NCZ024-NYZ072-PAZ021-071-VAZ022-071-120100-
OTHER REGIONAL OBSERVATIONS

CITY           SKY/WX    TMP DP  RH WIND       PRES   REMARKS
NEW YORK CITY  CLEAR     22  -6  29 NW12G25   30.09R WCI  10
PHILADELPHIA   PTCLDY    24  -2  32 W20G29    30.17R WCI  10
PITTSBURGH     PTCLDY    14  -1  51 W8        30.23R WCI   3
ROANOKE        FAIR      25   3  38 N14       30.23R WCI  13
RICHMOND       FAIR      29   2  31 NW8       30.23R WCI  21
RALEIGH        CLEAR     34  10  37 CALM      30.22R

$$

ANZ530>537-120100-
MARINE OBSERVATIONS

STATION/POSITION TIME  TEMP    WIND        PRES
                       AIR SEA DIR/SP/G
                 (UTC) (F)     (DEG/KT/KT) (MB)
THOMAS PT LIGHT  0000   25 38  310/ 17/ 20 1024.8R
BALT KEY BRIDGE  2300   25     280/ 21/ 24 1022.6R
COVE POINT       2300   26     340/ 17/ 22 1023.2R
LEWISETTA        2300   31 39  340/ 11/ 17 1022.3R
SOLOMONS ISLAND  2300   28 40  320/ 10/ 14   N/A
PINEY POINT      2300          350/ 19/ 23   N/A

$$




USA.gov is the U.S. government's official web portal to all federal, state and local government web resources and services.